Time,TemperatureF,DewpointF,PressureIn,WindDirection,WindDirectionDegrees,WindSpeedMPH,WindSpeedGustMPH,Humidity,HourlyPrecipIn,Conditions,Clouds,dailyrainin,SoftwareType,DateUTC
2013-10-22 00:11:00,55.9,55.6,29.90,SSE,157,0.0,-999.0,99,-99.99,,,0.00,Acu-Link.com,2013-10-22 04:11:00,
2013-10-22 00:27:00,55.9,55.6,29.91,South,180,0.0,-999.0,99,-99.99,,,0.00,Acu-Link.com,2013-10-22 04:27:00,
2013-10-22 00:42:00,55.9,55.6,29.92,SSE,157,0.0,-999.0,99,-99.99,,,0.00,Acu-Link.com,2013-10-22 04:42:00,
2013-10-22 00:57:00,55.9,55.6,29.92,SSE,157,0.0,-999.0,99,-99.99,,,0.00,Acu-Link.com,2013-10-22 04:57:00,
2013-10-22 01:12:00,55.9,55.6,29.91,SSE,157,0.0,-999.0,99,-99.99,,,0.00,Acu-Link.com,2013-10-22 05:12:00,
2013-10-22 01:27:00,55.9,55.6,29.92,SSE,157,0.0,-999.0,99,-99.99,,,0.00,Acu-Link.com,2013-10-22 05:27:00,
2013-10-22 01:42:00,55.9,55.6,29.91,SSE,157,0.0,-999.0,99,-99.99,,,0.00,Acu-Link.com,2013-10-22 05:42:00,
2013-10-22 01:57:00,55.9,55.6,29.91,South,180,0.0,-999.0,99,-99.99,,,0.00,Acu-Link.com,2013-10-22 05:57:00,
2013-10-22 02:12:00,55.9,55.6,29.91,SSE,157,0.0,-999.0,99,-99.99,,,0.00,Acu-Link.com,2013-10-22 06:12:00,
2013-10-22 02:28:00,55.9,55.6,29.91,SSW,202,0.0,-999.0,99,-99.99,,,0.00,Acu-Link.com,2013-10-22 06:28:00,
2013-10-22 02:43:00,55.9,55.6,29.91,South,180,0.0,-999.0,99,-99.99,,,0.00,Acu-Link.com,2013-10-22 06:43:00,
2013-10-22 02:59:00,55.9,55.6,29.90,SSW,202,0.0,-999.0,99,-99.99,,,0.00,Acu-Link.com,2013-10-22 06:59:00,
2013-10-22 03:14:00,55.9,55.6,29.90,NW,315,0.0,-999.0,99,-99.99,,,0.00,Acu-Link.com,2013-10-22 07:14:00,
2013-10-22 03:29:00,55.9,55.6,29.89,SSE,157,0.0,-999.0,99,-99.99,,,0.00,Acu-Link.com,2013-10-22 07:29:00,
2013-10-22 03:45:00,55.8,55.5,29.89,SSE,157,0.0,-999.0,99,-99.99,,,0.00,Acu-Link.com,2013-10-22 07:45:00,
2013-10-22 04:00:00,55.8,55.5,29.89,South,180,0.0,-999.0,99,-99.99,,,0.00,Acu-Link.com,2013-10-22 08:00:00,
2013-10-22 04:17:00,55.8,55.5,29.89,SSE,157,0.0,-999.0,99,-99.99,,,0.00,Acu-Link.com,2013-10-22 08:17:00,
2013-10-22 04:32:00,55.8,55.5,29.89,SSE,157,0.0,-999.0,99,-99.99,,,0.00,Acu-Link.com,2013-10-22 08:32:00,
2013-10-22 04:47:00,55.8,55.5,29.88,SSE,157,0.0,-999.0,99,-99.99,,,0.00,Acu-Link.com,2013-10-22 08:47:00,
2013-10-22 05:02:00,55.8,55.5,29.87,NNE,22,0.0,-999.0,99,-99.99,,,0.00,Acu-Link.com,2013-10-22 09:02:00,
2013-10-22 05:17:00,55.8,55.5,29.87,South,180,0.0,-999.0,99,-99.99,,,0.00,Acu-Link.com,2013-10-22 09:17:00,
2013-10-22 05:33:00,55.8,55.5,29.87,SSE,157,0.0,-999.0,99,-99.99,,,0.00,Acu-Link.com,2013-10-22 09:33:00,
2013-10-22 05:48:00,56.3,56.0,29.87,SSE,157,0.0,-999.0,99,-99.99,,,0.00,Acu-Link.com,2013-10-22 09:48:00,
2013-10-22 06:03:00,56.3,56.0,29.88,South,180,0.0,-999.0,99,-99.99,,,0.00,Acu-Link.com,2013-10-22 10:03:00,
2013-10-22 06:18:00,56.5,56.2,29.87,SSW,202,0.0,-999.0,99,-99.99,,,0.00,Acu-Link.com,2013-10-22 10:18:00,
2013-10-22 06:34:00,56.8,56.5,29.87,South,180,0.0,-999.0,99,-99.99,,,0.00,Acu-Link.com,2013-10-22 10:34:00,
2013-10-22 06:49:00,56.8,56.5,29.87,SSE,157,0.0,-999.0,99,-99.99,,,0.00,Acu-Link.com,2013-10-22 10:49:00,
2013-10-22 07:04:00,56.8,56.5,29.87,South,180,0.0,-999.0,99,-99.99,,,0.00,Acu-Link.com,2013-10-22 11:04:00,
2013-10-22 07:20:00,56.8,56.5,29.86,South,180,0.0,-999.0,99,-99.99,,,0.00,Acu-Link.com,2013-10-22 11:20:00,
2013-10-22 07:35:00,57.0,56.7,29.87,SSE,157,0.0,-999.0,99,-99.99,,,0.00,Acu-Link.com,2013-10-22 11:35:00,
2013-10-22 07:50:00,57.0,56.7,29.86,SSW,202,0.0,-999.0,99,-99.99,,,0.00,Acu-Link.com,2013-10-22 11:50:00,
2013-10-22 08:05:00,57.2,56.9,29.85,SSE,157,0.0,-999.0,99,-99.99,,,0.00,Acu-Link.com,2013-10-22 12:05:00,
2013-10-22 08:21:00,57.4,57.1,29.86,SSW,202,0.0,-999.0,99,-99.99,,,0.00,Acu-Link.com,2013-10-22 12:21:00,
2013-10-22 08:36:00,57.6,57.3,29.86,SSW,202,0.0,-999.0,99,-99.99,,,0.00,Acu-Link.com,2013-10-22 12:36:00,
2013-10-22 08:51:00,57.7,57.4,29.86,SSE,157,0.0,-999.0,99,-99.99,,,0.00,Acu-Link.com,2013-10-22 12:51:00,
2013-10-22 09:06:00,58.1,57.8,29.87,South,180,0.0,-999.0,99,-99.99,,,0.00,Acu-Link.com,2013-10-22 13:06:00,
2013-10-22 09:21:00,58.8,58.5,29.86,SSW,202,0.0,-999.0,99,-99.99,,,0.00,Acu-Link.com,2013-10-22 13:21:00,
2013-10-22 09:37:00,59.5,59.2,29.86,SSW,202,0.0,-999.0,99,-99.99,,,0.00,Acu-Link.com,2013-10-22 13:37:00,
2013-10-22 09:52:00,60.4,60.1,29.86,West,270,0.0,-999.0,99,-99.99,,,0.00,Acu-Link.com,2013-10-22 13:52:00,
2013-10-22 10:08:00,61.0,60.7,29.87,SE,135,0.0,-999.0,99,-99.99,,,0.00,Acu-Link.com,2013-10-22 14:08:00,
2013-10-22 10:23:00,61.2,60.6,29.86,SW,225,0.0,-999.0,98,-99.99,,,0.00,Acu-Link.com,2013-10-22 14:23:00,
2013-10-22 10:38:00,61.3,60.4,29.85,SSW,202,0.0,-999.0,97,-99.99,,,0.00,Acu-Link.com,2013-10-22 14:38:00,
2013-10-22 10:54:00,61.5,60.6,29.85,West,270,0.0,-999.0,97,-99.99,,,0.00,Acu-Link.com,2013-10-22 14:54:00,
2013-10-22 11:09:00,62.4,59.1,29.84,West,270,0.0,-999.0,89,-99.99,,,0.00,Acu-Link.com,2013-10-22 15:09:00,
2013-10-22 11:24:00,64.0,57.7,29.84,ESE,112,0.0,-999.0,80,-99.99,,,0.00,Acu-Link.com,2013-10-22 15:24:00,
2013-10-22 11:39:00,65.1,57.0,29.84,ENE,67,0.0,-999.0,75,-99.99,,,0.00,Acu-Link.com,2013-10-22 15:39:00,
2013-10-22 11:54:00,66.2,59.1,29.83,South,180,0.0,-999.0,78,-99.99,,,0.00,Acu-Link.com,2013-10-22 15:54:00,
2013-10-22 12:10:00,66.7,57.0,29.82,West,270,1.7,-999.0,71,-99.99,,,0.00,Acu-Link.com,2013-10-22 16:10:00,
2013-10-22 12:25:00,66.6,57.7,29.82,NNW,337,0.0,-999.0,73,-99.99,,,0.00,Acu-Link.com,2013-10-22 16:25:00,
2013-10-22 12:40:00,66.4,58.6,29.81,NNW,337,0.0,-999.0,76,-99.99,,,0.00,Acu-Link.com,2013-10-22 16:40:00,
2013-10-22 12:56:00,66.7,59.6,29.80,SE,135,0.0,-999.0,78,-99.99,,,0.00,Acu-Link.com,2013-10-22 16:56:00,
2013-10-22 13:11:00,67.5,57.8,29.80,West,270,0.0,-999.0,71,-99.99,,,0.00,Acu-Link.com,2013-10-22 17:11:00,
2013-10-22 13:26:00,67.1,57.4,29.78,SSE,157,0.0,-999.0,71,-99.99,,,0.00,Acu-Link.com,2013-10-22 17:26:00,
2013-10-22 13:41:00,67.6,57.1,29.78,SSW,202,0.0,-999.0,69,-99.99,,,0.00,Acu-Link.com,2013-10-22 17:41:00,
2013-10-22 13:56:00,68.0,57.0,29.77,SSE,157,0.0,-999.0,68,-99.99,,,0.00,Acu-Link.com,2013-10-22 17:56:00,
2013-10-22 14:11:00,67.1,57.8,29.77,South,180,0.0,-999.0,72,-99.99,,,0.00,Acu-Link.com,2013-10-22 18:11:00,
2013-10-22 14:27:00,66.2,57.3,29.76,SSW,202,0.0,-999.0,73,-99.99,,,0.00,Acu-Link.com,2013-10-22 18:27:00,
2013-10-22 14:44:00,66.6,56.1,29.75,SSE,157,0.0,-999.0,69,-99.99,,,0.00,Acu-Link.com,2013-10-22 18:44:00,
2013-10-22 14:59:00,66.0,57.8,29.74,South,180,0.0,-999.0,75,-99.99,,,0.00,Acu-Link.com,2013-10-22 18:59:00,
2013-10-22 15:15:00,65.5,58.1,29.74,South,180,0.0,-999.0,77,-99.99,,,0.00,Acu-Link.com,2013-10-22 19:15:00,
2013-10-22 15:30:00,64.4,58.4,29.74,ESE,112,0.0,-999.0,81,-99.99,,,0.00,Acu-Link.com,2013-10-22 19:30:00,
2013-10-22 15:45:00,64.8,59.8,29.73,SSW,202,0.0,-999.0,84,-99.99,,,0.00,Acu-Link.com,2013-10-22 19:45:00,
2013-10-22 16:00:00,64.4,59.5,29.73,South,180,0.0,-999.0,84,-99.99,,,0.00,Acu-Link.com,2013-10-22 20:00:00,
2013-10-22 16:15:00,64.6,59.7,29.72,South,180,0.0,-999.0,84,-99.99,,,0.00,Acu-Link.com,2013-10-22 20:15:00,
2013-10-22 16:30:00,64.8,59.8,29.72,East,90,0.0,-999.0,84,-99.99,,,0.00,Acu-Link.com,2013-10-22 20:30:00,
2013-10-22 16:45:00,65.3,59.3,29.72,SSE,157,0.0,-999.0,81,-99.99,,,0.00,Acu-Link.com,2013-10-22 20:45:00,
2013-10-22 17:01:00,65.5,58.8,29.72,NNE,22,0.0,-999.0,79,-99.99,,,0.00,Acu-Link.com,2013-10-22 21:01:00,
2013-10-22 17:16:00,65.3,59.3,29.71,South,180,0.0,-999.0,81,-99.99,,,0.00,Acu-Link.com,2013-10-22 21:16:00,
2013-10-22 17:31:00,64.6,59.3,29.72,South,180,0.0,-999.0,83,-99.99,,,0.00,Acu-Link.com,2013-10-22 21:31:00,
2013-10-22 17:46:00,64.4,59.5,29.71,South,180,0.0,-999.0,84,-99.99,,,0.00,Acu-Link.com,2013-10-22 21:46:00,
2013-10-22 18:02:00,64.2,59.3,29.72,SSW,202,0.0,-999.0,84,-99.99,,,0.00,Acu-Link.com,2013-10-22 22:02:00,
2013-10-22 18:17:00,63.9,59.3,29.71,South,180,0.0,-999.0,85,-99.99,,,0.00,Acu-Link.com,2013-10-22 22:17:00,
2013-10-22 18:32:00,63.3,59.7,29.71,South,180,0.0,-999.0,88,-99.99,,,0.00,Acu-Link.com,2013-10-22 22:32:00,
2013-10-22 18:47:00,62.4,58.8,29.71,SSE,157,0.0,-999.0,88,-99.99,,,0.00,Acu-Link.com,2013-10-22 22:47:00,
2013-10-22 19:02:00,62.1,58.8,29.72,SSW,202,0.0,-999.0,89,-99.99,,,0.00,Acu-Link.com,2013-10-22 23:02:00,
2013-10-22 19:17:00,61.9,58.6,29.71,SSE,157,0.0,-999.0,89,-99.99,,,0.00,Acu-Link.com,2013-10-22 23:17:00,
2013-10-22 19:32:00,61.5,58.5,29.71,South,180,0.0,-999.0,90,-99.99,,,0.00,Acu-Link.com,2013-10-22 23:32:00,
2013-10-22 19:48:00,61.3,58.6,29.71,SSE,157,0.0,-999.0,91,-99.99,,,0.00,Acu-Link.com,2013-10-22 23:48:00,
2013-10-22 20:03:00,61.3,58.6,29.71,NNE,22,0.0,-999.0,91,-99.99,,,0.00,Acu-Link.com,2013-10-23 00:03:00,
2013-10-22 20:18:00,60.8,58.5,29.71,SSE,157,0.0,-999.0,92,-99.99,,,0.00,Acu-Link.com,2013-10-23 00:18:00,
2013-10-22 20:33:00,60.4,58.1,29.71,SSE,157,0.0,-999.0,92,-99.99,,,0.00,Acu-Link.com,2013-10-23 00:33:00,
2013-10-22 20:48:00,60.1,58.4,29.71,SSE,157,0.0,-999.0,94,-99.99,,,0.00,Acu-Link.com,2013-10-23 00:48:00,
2013-10-22 21:03:00,59.5,57.8,29.71,SSE,157,0.0,-999.0,94,-99.99,,,0.00,Acu-Link.com,2013-10-23 01:03:00,
2013-10-22 21:21:00,59.0,57.9,29.71,SSE,157,0.0,-999.0,96,-99.99,,,0.00,Acu-Link.com,2013-10-23 01:21:00,
2013-10-22 21:36:00,58.5,57.7,29.71,South,180,0.0,-999.0,97,-99.99,,,0.00,Acu-Link.com,2013-10-23 01:36:00,
2013-10-22 21:52:00,58.1,57.3,29.71,South,180,0.0,-999.0,97,-99.99,,,0.00,Acu-Link.com,2013-10-23 01:52:00,
2013-10-22 22:07:00,57.7,57.1,29.72,South,180,0.0,-999.0,98,-99.99,,,0.00,Acu-Link.com,2013-10-23 02:07:00,
2013-10-22 22:22:00,57.4,57.1,29.72,South,180,0.0,-999.0,99,-99.99,,,0.00,Acu-Link.com,2013-10-23 02:22:00,
2013-10-22 22:38:00,57.0,56.7,29.71,NW,315,0.0,-999.0,99,-99.99,,,0.00,Acu-Link.com,2013-10-23 02:38:00,
2013-10-22 22:53:00,56.8,56.5,29.72,SSE,157,0.0,-999.0,99,-99.99,,,0.00,Acu-Link.com,2013-10-23 02:53:00,
2013-10-22 23:08:00,56.8,56.5,29.71,South,180,0.0,-999.0,99,-99.99,,,0.00,Acu-Link.com,2013-10-23 03:08:00,
2013-10-22 23:23:00,56.7,56.4,29.71,South,180,0.0,-999.0,99,-99.99,,,0.00,Acu-Link.com,2013-10-23 03:23:00,
2013-10-22 23:39:00,56.7,56.4,29.70,South,180,0.0,-999.0,99,-99.99,,,0.00,Acu-Link.com,2013-10-23 03:39:00,
2013-10-22 23:54:00,56.3,56.0,29.70,South,180,0.0,-999.0,99,-99.99,,,0.00,Acu-Link.com,2013-10-23 03:54:00,